This is the latest recevied weather packets stored in our database for station/object KC1OEK-13. If no packets are shown the sender has not sent any weather packets the latest 10 day(s).
| Time | Temp. | Humidity | Pressure | Rain* | Wind** | Luminosity | Snow |
|---|---|---|---|---|---|---|---|
| 1788117214 | 25° C | 70% | 1020.7 hPa | 0 mm | - | 333 W/m² | - |
| 1788116910 | 25° C | 71% | 1020.9 hPa | 0 mm | - | 230 W/m² | - |
| 1788116610 | 25° C | 70% | 1020.8 hPa | 0 mm | - | 194 W/m² | - |
| 1788116303 | 25° C | 69% | 1020.9 hPa | 0 mm | - | 233 W/m² | - |
| 1788115999 | 24.44° C | 69% | 1020.9 hPa | 0 mm | - | 267 W/m² | - |
| 1788115694 | 24.44° C | 69% | 1021.2 hPa | 0 mm | - | 231 W/m² | - |
| 1788115393 | 25° C | 68% | 1021.2 hPa | 0 mm | - | 223 W/m² | - |
| 1788115087 | 25.56° C | 68% | 1021.5 hPa | 0 mm | - | 274 W/m² | - |
| 1788114782 | 25° C | 67% | 1021.5 hPa | 0 mm | - | 270 W/m² | - |
| 1788114477 | 26.11° C | 68% | 1021.5 hPa | 0 mm | - | 351 W/m² | - |
| 1788114173 | 25.56° C | 67% | 1021.4 hPa | 0 mm | - | 399 W/m² | - |
| 1788113869 | 25° C | 67% | 1021.5 hPa | 0 mm | - | 380 W/m² | - |
| 1788113564 | 25° C | 66% | 1021.6 hPa | 0 mm | - | 245 W/m² | - |
| 1788113263 | 25.56° C | 64% | 1021.6 hPa | 0 mm | - | 260 W/m² | - |
| 1788112957 | 25.56° C | 63% | 1021.5 hPa | 0 mm | - | 464 W/m² | - |
| 1788112652 | 26.11° C | 62% | 1021.5 hPa | 0 mm | - | 745 W/m² | - |
| 1788112347 | 27.22° C | 61% | 1021.4 hPa | 0 mm | - | 788 W/m² | - |
| 1788112041 | 26.67° C | 61% | 1021.3 hPa | 0 mm | - | 496 W/m² | - |
| 1788111738 | 26.11° C | 63% | 1021.6 hPa | 0 mm | - | 552 W/m² | - |
| 1788111437 | 27.22° C | 62% | 1021.6 hPa | 0 mm | - | 725 W/m² | - |
| 1788111132 | 26.11° C | 62% | 1021.5 hPa | 0 mm | - | 672 W/m² | - |
| 1788110829 | 25.56° C | 64% | 1021.7 hPa | 0 mm | - | 898 W/m² | - |
| 1788110525 | 26.11° C | 60% | 1021.9 hPa | 0 mm | - | 357 W/m² | - |
| 1788110220 | 26.11° C | 63% | 1021.8 hPa | 0 mm | - | 424 W/m² | - |
| 1788109915 | 26.11° C | 59% | 1021.9 hPa | 0 mm | - | 439 W/m² | - |
* Rain latest hour (hover to see other rain measurements)
** Current wind speed in m/s (hover to see current wind gust speed)